RADUGA 26 [-]

Last updated on Wed Jun 28 2023 00:02:57 GMT+0000 (Coordinated Universal Time)

1 21016U 90112A 23177.74712247 -.00000277 00000+0 00000+0 0 9992 2 21016 13.8088 345.8073 0008275 107.0904 186.1680 1.00254986119346

Satellite not in orbit

RADUGA 26 [-]